• In Belarus
  • List of Countries
  • For 7 days
  • Water Temperature
  • Satellite Maps
  • Weather Map
  • Weather Widgets
  • user-avatar
    Login

    Hourly Weather Marysin

    Today, 20 October, Saturday

    Time Temperature Precipitation Wind Pressure Humidity
    00:00 +11°C° 0 mm 1 mps 757 mmHg 82%
    01:00 +11°C° 0 mm 1 mps 757 mmHg 83%
    02:00 +10°C° 0 mm 1 mps 757 mmHg 83%
    03:00 +10°C° 0 mm 1 mps 757 mmHg 83%
    04:00 +9°C° 0 mm 2 mps 757 mmHg 84%
    05:00 +8°C° 0 mm 2 mps 757 mmHg 85%
    06:00 +8°C° 0 mm 2 mps 757 mmHg 87%
    07:00 +7°C° 0 mm 2 mps 758 mmHg 88%
    08:00 +8°C° 0 mm 2 mps 758 mmHg 82%
    09:00 +9°C° 0 mm 2 mps 758 mmHg 75%
    10:00 +10°C° 0 mm 3 mps 758 mmHg 69%
    11:00 +10°C° 0 mm 3 mps 758 mmHg 66%
    12:00 +11°C° 0 mm 3 mps 758 mmHg 63%
    13:00 +11°C° 0 mm 3 mps 758 mmHg 60%
    14:00 +10°C° 0 mm 3 mps 758 mmHg 60%
    15:00 +10°C° 0 mm 3 mps 758 mmHg 60%
    16:00 +10°C° 0 mm 3 mps 758 mmHg 61%
    17:00 +9°C° 0 mm 3 mps 758 mmHg 63%
    18:00 +8°C° 0 mm 2 mps 759 mmHg 65%
    19:00 +8°C° 0 mm 2 mps 759 mmHg 68%
    20:00 +8°C° 0 mm 2 mps 759 mmHg 69%
    21:00 +8°C° 0 mm 2 mps 759 mmHg 70%
    22:00 +7°C° 0 mm 2 mps 759 mmHg 71%
    23:00 +7°C° 0 mm 2 mps 759 mmHg 74%

    Tomorrow, 21 October, Sunday

    Time Temperature Precipitation Wind Pressure Humidity
    00:00 +7°C° 0 mm 2 mps 759 mmHg 76%
    01:00 +7°C° 0 mm 2 mps 759 mmHg 79%
    02:00 +6°C° 0 mm 2 mps 759 mmHg 82%
    03:00 +6°C° 0 mm 2 mps 758 mmHg 86%
    04:00 +7°C° 0 mm 1 mps 758 mmHg 89%
    05:00 +7°C° 0 mm 1 mps 758 mmHg 91%
    06:00 +6°C° 0 mm 1 mps 759 mmHg 93%
    07:00 +6°C° 0 mm 1 mps 759 mmHg 95%
    08:00 +8°C° 0 mm 1 mps 759 mmHg 87%
    09:00 +10°C° 0 mm 1 mps 759 mmHg 80%
    10:00 +12°C° 0 mm 1 mps 759 mmHg 72%
    11:00 +13°C° 0 mm 1 mps 759 mmHg 67%
    12:00 +14°C° 0 mm 1 mps 759 mmHg 62%
    13:00 +14°C° 0 mm 0 mps 759 mmHg 57%
    14:00 +14°C° 0 mm 0 mps 759 mmHg 58%
    15:00 +13°C° 0 mm 0 mps 758 mmHg 60%
    16:00 +13°C° 0 mm 0 mps 758 mmHg 62%
    17:00 +11°C° 0 mm 0 mps 758 mmHg 67%
    18:00 +10°C° 0 mm 0 mps 758 mmHg 72%
    19:00 +9°C° 0 mm 0 mps 759 mmHg 77%
    20:00 +8°C° 0 mm 0 mps 759 mmHg 79%
    21:00 +9°C° 0 mm 1 mps 759 mmHg 81%
    22:00 +8°C° 0 mm 1 mps 759 mmHg 83%
    23:00 +8°C° 0 mm 1 mps 759 mmHg 84%

    Day after tomorrow, 22 October, Monday

    Time Temperature Precipitation Wind Pressure Humidity
    00:00 +8°C° 0 mm 1 mps 758 mmHg 86%
    01:00 +7°C° 0 mm 1 mps 758 mmHg 88%
    02:00 +7°C° 0 mm 1 mps 758 mmHg 88%
    03:00 +7°C° 0 mm 1 mps 758 mmHg 89%
    04:00 +7°C° 0 mm 1 mps 758 mmHg 90%
    05:00 +6°C° 0 mm 1 mps 758 mmHg 91%
    06:00 +6°C° 0 mm 1 mps 758 mmHg 91%
    07:00 +6°C° 0 mm 1 mps 757 mmHg 91%
    08:00 +8°C° 0 mm 1 mps 757 mmHg 82%
    09:00 +9°C° 0 mm 2 mps 757 mmHg 73%
    10:00 +12°C° 0 mm 2 mps 757 mmHg 64%
    11:00 +13°C° 0 mm 2 mps 757 mmHg 59%
    12:00 +14°C° 0 mm 2 mps 757 mmHg 55%
    13:00 +15°C° 0 mm 2 mps 756 mmHg 50%
    14:00 +14°C° 0.1 mm 2 mps 756 mmHg 56%
    15:00 +12°C° 0.1 mm 3 mps 756 mmHg 61%
    16:00 +11°C° 0.1 mm 3 mps 756 mmHg 67%
    17:00 +10°C° 0.5 mm 3 mps 756 mmHg 73%
    18:00 +10°C° 0.5 mm 4 mps 756 mmHg 80%
    19:00 +8°C° 0.5 mm 4 mps 757 mmHg 86%
    20:00 +7°C° 0.8 mm 4 mps 757 mmHg 85%
    21:00 +7°C° 0.8 mm 4 mps 757 mmHg 84%
    22:00 +7°C° 0.8 mm 4 mps 758 mmHg 84%
    23:00 +7°C° 0.1 mm 3 mps 758 mmHg 83%

    23 October, Tuesday

    Time Temperature Precipitation Wind Pressure Humidity
    00:00 +7°C° 0.1 mm 3 mps 758 mmHg 83%
    01:00 +5°C° 0.1 mm 3 mps 758 mmHg 83%
    02:00 +5°C° 0 mm 3 mps 758 mmHg 85%
    03:00 +4°C° 0 mm 3 mps 758 mmHg 87%
    04:00 +3°C° 0 mm 3 mps 758 mmHg 89%
    05:00 +3°C° 0 mm 3 mps 758 mmHg 90%
    06:00 +3°C° 0 mm 3 mps 758 mmHg 91%
    07:00 +3°C° 0 mm 3 mps 758 mmHg 92%
    08:00 +4°C° 0 mm 3 mps 758 mmHg 86%
    09:00 +5°C° 0 mm 4 mps 758 mmHg 81%
    10:00 +7°C° 0 mm 4 mps 757 mmHg 75%
    11:00 +8°C° 0 mm 5 mps 757 mmHg 71%
    12:00 +8°C° 0 mm 6 mps 756 mmHg 67%
    13:00 +9°C° 0 mm 7 mps 755 mmHg 63%
    14:00 +9°C° 0.2 mm 7 mps 754 mmHg 67%
    15:00 +8°C° 0.2 mm 7 mps 753 mmHg 70%
    16:00 +7°C° 0.2 mm 8 mps 752 mmHg 74%
    17:00 +7°C° 0.8 mm 8 mps 751 mmHg 76%
    18:00 +7°C° 0.8 mm 8 mps 750 mmHg 79%
    19:00 +7°C° 0.8 mm 9 mps 749 mmHg 82%
    20:00 +7°C° 0.7 mm 9 mps 748 mmHg 83%
    21:00 +8°C° 0.7 mm 9 mps 747 mmHg 83%
    22:00 +8°C° 0.7 mm 10 mps 746 mmHg 83%
    23:00 +9°C° 0.6 mm 10 mps 745 mmHg 83%

    24 October, Wednesday

    Time Temperature Precipitation Wind Pressure Humidity
    00:00 +9°C° 0.6 mm 10 mps 744 mmHg 84%
    01:00 +11°C° 0.6 mm 10 mps 744 mmHg 84%
    02:00 +11°C° 0.5 mm 9 mps 744 mmHg 83%
    03:00 +11°C° 0.5 mm 9 mps 744 mmHg 81%
    04:00 +11°C° 0.5 mm 8 mps 744 mmHg 80%
    05:00 +11°C° 0.2 mm 8 mps 744 mmHg 79%
    06:00 +10°C° 0.2 mm 8 mps 745 mmHg 79%
    07:00 +9°C° 0.2 mm 7 mps 745 mmHg 78%
    08:00 +9°C° 0.2 mm 7 mps 745 mmHg 76%
    09:00 +9°C° 0.2 mm 7 mps 746 mmHg 74%
    10:00 +10°C° 0.2 mm 7 mps 746 mmHg 73%
    11:00 +10°C° 0.1 mm 7 mps 747 mmHg 71%
    12:00 +10°C° 0.1 mm 7 mps 747 mmHg 69%
    13:00 +10°C° 0.1 mm 7 mps 747 mmHg 67%
    14:00 +10°C° 0.1 mm 6 mps 747 mmHg 68%
    15:00 +9°C° 0.1 mm 5 mps 747 mmHg 68%
    16:00 +9°C° 0.1 mm 5 mps 747 mmHg 69%
    17:00 +10°C° 0 mm 4 mps 748 mmHg 71%
    18:00 +8°C° 0 mm 4 mps 748 mmHg 74%
    19:00 +8°C° 0 mm 4 mps 748 mmHg 76%
    20:00 +8°C° 0 mm 4 mps 749 mmHg 78%
    21:00 +8°C° 0 mm 4 mps 749 mmHg 81%
    22:00 +8°C° 0 mm 4 mps 749 mmHg 83%
    23:00 +8°C° 0.1 mm 4 mps 749 mmHg 85%

    25 October, Thursday

    Time Temperature Precipitation Wind Pressure Humidity
    00:00 +8°C° 0.1 mm 4 mps 749 mmHg 87%
    01:00 +8°C° 0.1 mm 4 mps 750 mmHg 89%
    02:00 +8°C° 0.1 mm 5 mps 750 mmHg 88%
    03:00 +9°C° 0.1 mm 5 mps 749 mmHg 87%
    04:00 +9°C° 0.1 mm 5 mps 749 mmHg 86%
    05:00 +10°C° 0.1 mm 6 mps 749 mmHg 86%
    06:00 +10°C° 0.1 mm 6 mps 749 mmHg 86%
    07:00 +10°C° 0.1 mm 6 mps 748 mmHg 87%
    08:00 +11°C° 0.1 mm 7 mps 748 mmHg 83%
    09:00 +11°C° 0.1 mm 8 mps 748 mmHg 79%
    10:00 +11°C° 0.1 mm 8 mps 748 mmHg 75%
    11:00 +11°C° 0.1 mm 8 mps 748 mmHg 75%
    12:00 +11°C° 0.1 mm 8 mps 748 mmHg 75%
    13:00 +11°C° 0.1 mm 8 mps 747 mmHg 75%
    14:00 +11°C° 0.1 mm 8 mps 747 mmHg 74%
    15:00 +11°C° 0.1 mm 8 mps 747 mmHg 74%
    16:00 +10°C° 0.1 mm 7 mps 746 mmHg 74%
    17:00 +10°C° 0 mm 7 mps 746 mmHg 74%
    18:00 +10°C° 0 mm 7 mps 746 mmHg 75%
    19:00 +9°C° 0 mm 7 mps 746 mmHg 76%
    20:00 +9°C° 0 mm 7 mps 746 mmHg 76%
    21:00 +9°C° 0 mm 8 mps 746 mmHg 76%
    22:00 +9°C° 0 mm 8 mps 746 mmHg 77%
    23:00 +9°C° 0.3 mm 8 mps 746 mmHg 78%
    Show more